Location: Unspecified
(38.6830°S, 0.0000°E)
Time: 20:38:46
(UTC+00:00)

Envisat - Pass Details

Date: 31 May 2019
Orbit: 764 x 766 km, 98.1° (Epoch: 18 June)

Event Time Altitude Azimuth Distance (km) Brightness Sun altitude
Rises 06:06:36 0° 25° (NNE) 3,223 6.9 -11.8°
Reaches altitude 10° 06:08:55 10° 28° (NNE) 2,305 6.2 -11.4°
Maximum altitude 06:13:55 59° 107° (ESE) 890 3.6 -10.5°
Drops below altitude 10° 06:18:58 10° 185° (S) 2,336 5.3 -9.5°
Sets 06:21:19 0° 188° (S) 3,270 6.0 -9.1°
